CYPQ

Peterborough Municipal Airport

Airport
ICAO code
CYPQ
IATA Code
YPQ
Summary
ICAO Region
NAM
ICAO Territory
Location

Peterborough, Ontario,

Serving
Peterborough
Elevation
628 ft
Coordinates
44° 13' 48" N , 78° 21' 48" W
KCC
Metar
CYPQ 222000Z AUTO 32006KT 270V340 9SM CLR 11/03 A2962 RMK SLP035

Description

International airport serving Peterborough, located 3 nm south-southwest of the city of Peterborough, Ontario, Canada.

Climatology

Humid continental climate (Köppen climate classification Dfa) - characterized by four seasons: cold, windy, snowy winters, mild springs, hot, humid summers, and crisp and relatively short autumns. Precipitation reaches its lowest in January and February and peaks in summer and latter half of spring.

Runways

Designator Length Width Surface Rops
14/32 543 30 GRS No/No
9/27 2134 30 ASP Yes/Yes

Airport map

Aerial View

SKYbrary Partners:

Safety knowledge contributed by: